Time,TemperatureF,DewpointF,PressureIn,WindDirection,WindDirectionDegrees,WindSpeedMPH,WindSpeedGustMPH,Humidity,HourlyPrecipIn,Conditions,Clouds,dailyrainin,SoftwareType,DateUTC
2013-02-13 00:00:00,34.0,24.8,29.78,SSW,203,1.3,2.0,69,0.00,,,0.00,WUHU216HW,2013-02-13 05:00:00,
2013-02-13 00:05:00,33.8,25.0,29.78,South,180,1.1,1.6,70,0.00,,,0.00,WUHU216HW,2013-02-13 05:05:00,
2013-02-13 00:10:00,33.5,24.3,29.78,South,180,0.4,1.6,69,0.00,,,0.00,WUHU216HW,2013-02-13 05:10:00,
2013-02-13 00:15:00,33.1,24.4,29.79,ENE,68,0.2,1.8,70,0.00,,,0.00,WUHU216HW,2013-02-13 05:15:00,
2013-02-13 00:20:00,33.1,24.0,29.79,ENE,68,0.2,1.8,69,0.00,,,0.00,WUHU216HW,2013-02-13 05:20:00,
2013-02-13 00:25:00,32.8,24.0,29.79,ESE,113,0.9,1.1,70,0.00,,,0.00,WUHU216HW,2013-02-13 05:25:00,
2013-02-13 00:30:00,32.8,24.0,29.79,SW,225,1.6,1.6,70,0.00,,,0.00,WUHU216HW,2013-02-13 05:30:00,
2013-02-13 00:35:00,32.4,23.8,29.79,ENE,68,0.0,1.6,70,0.00,,,0.00,WUHU216HW,2013-02-13 05:35:00,
2013-02-13 00:40:00,32.2,23.6,29.79,ESE,113,0.4,1.1,70,0.00,,,0.00,WUHU216HW,2013-02-13 05:40:00,
2013-02-13 00:45:00,32.0,23.4,29.79,ESE,113,0.0,1.1,70,0.00,,,0.00,WUHU216HW,2013-02-13 05:45:00,
2013-02-13 00:50:00,32.2,23.9,29.79,SSE,158,0.0,1.8,71,0.00,,,0.00,WUHU216HW,2013-02-13 05:50:00,
2013-02-13 00:55:00,32.0,23.4,29.79,SSE,158,0.2,1.8,70,0.00,,,0.00,WUHU216HW,2013-02-13 05:55:00,
2013-02-13 01:00:00,32.0,23.4,29.79,South,180,0.0,0.7,70,0.00,,,0.00,WUHU216HW,2013-02-13 06:00:00,
2013-02-13 01:05:00,31.7,23.0,29.79,South,180,0.0,0.4,70,0.00,,,0.00,WUHU216HW,2013-02-13 06:05:00,
2013-02-13 01:10:00,31.5,23.2,29.79,South,180,0.2,0.9,71,0.00,,,0.00,WUHU216HW,2013-02-13 06:10:00,
2013-02-13 01:15:00,31.3,23.1,29.79,South,180,0.0,0.9,71,0.00,,,0.00,WUHU216HW,2013-02-13 06:15:00,
2013-02-13 01:20:00,31.3,23.1,29.79,ESE,113,0.0,1.1,71,0.00,,,0.00,WUHU216HW,2013-02-13 06:20:00,
2013-02-13 01:25:00,31.1,22.9,29.79,ESE,113,0.7,1.1,71,0.00,,,0.00,WUHU216HW,2013-02-13 06:25:00,
2013-02-13 01:30:00,30.8,22.5,29.79,ESE,113,0.0,0.7,71,0.00,,,0.00,WUHU216HW,2013-02-13 06:30:00,
2013-02-13 01:35:00,30.6,22.3,29.80,ESE,113,0.0,0.4,71,0.00,,,0.00,WUHU216HW,2013-02-13 06:35:00,
2013-02-13 01:40:00,30.4,22.4,29.80,ESE,113,0.0,0.0,72,0.00,,,0.00,WUHU216HW,2013-02-13 06:40:00,
2013-02-13 01:45:00,29.9,22.0,29.80,ESE,113,0.2,0.2,72,0.00,,,0.00,WUHU216HW,2013-02-13 06:45:00,
2013-02-13 01:51:00,29.9,22.0,29.80,ESE,113,0.0,0.2,72,0.00,,,0.00,WUHU216HW,2013-02-13 06:51:00,
2013-02-13 01:56:00,29.7,21.8,29.81,ESE,113,0.0,0.0,72,0.00,,,0.00,WUHU216HW,2013-02-13 06:56:00,
2013-02-13 02:01:00,29.5,21.9,29.81,ESE,113,0.0,0.0,73,0.00,,,0.00,WUHU216HW,2013-02-13 07:01:00,
2013-02-13 02:06:00,29.2,21.6,29.81,ESE,113,0.0,0.0,73,0.00,,,0.00,WUHU216HW,2013-02-13 07:06:00,
2013-02-13 02:11:00,29.0,21.4,29.82,ESE,113,0.0,0.0,73,0.00,,,0.00,WUHU216HW,2013-02-13 07:11:00,
2013-02-13 02:16:00,28.4,20.9,29.82,ESE,113,0.0,0.0,73,0.00,,,0.00,WUHU216HW,2013-02-13 07:16:00,
2013-02-13 02:21:00,28.4,21.3,29.82,ESE,113,0.0,0.0,74,0.00,,,0.00,WUHU216HW,2013-02-13 07:21:00,
2013-02-13 02:26:00,28.4,21.3,29.82,ESE,113,0.0,0.0,74,0.00,,,0.00,WUHU216HW,2013-02-13 07:26:00,
2013-02-13 02:31:00,28.4,21.5,29.82,ESE,113,0.0,0.0,75,0.00,,,0.00,WUHU216HW,2013-02-13 07:31:00,
2013-02-13 02:36:00,28.4,21.5,29.81,ESE,113,0.0,0.0,75,0.00,,,0.00,WUHU216HW,2013-02-13 07:36:00,
2013-02-13 02:41:00,28.4,21.5,29.81,ESE,113,0.0,0.0,75,0.00,,,0.00,WUHU216HW,2013-02-13 07:41:00,
2013-02-13 02:46:00,28.3,21.3,29.81,ESE,113,0.0,0.0,75,0.00,,,0.00,WUHU216HW,2013-02-13 07:46:00,
2013-02-13 02:51:00,28.3,21.3,29.81,ESE,113,0.0,0.4,75,0.00,,,0.00,WUHU216HW,2013-02-13 07:51:00,
2013-02-13 02:56:00,28.3,21.6,29.81,ESE,113,0.0,0.4,76,0.00,,,0.00,WUHU216HW,2013-02-13 07:56:00,
2013-02-13 03:01:00,28.1,21.4,29.81,ESE,113,0.0,0.2,76,0.00,,,0.00,WUHU216HW,2013-02-13 08:01:00,
2013-02-13 03:06:00,27.7,20.8,29.81,SSW,203,0.2,0.4,75,0.00,,,0.00,WUHU216HW,2013-02-13 08:06:00,
2013-02-13 03:11:00,27.7,20.8,29.81,SSW,203,0.2,0.4,75,0.00,,,0.00,WUHU216HW,2013-02-13 08:11:00,
2013-02-13 03:16:00,27.5,20.9,29.80,SSW,203,0.0,0.7,76,0.00,,,0.00,WUHU216HW,2013-02-13 08:16:00,
2013-02-13 03:21:00,27.5,20.9,29.80,SSW,203,0.0,0.7,76,0.00,,,0.00,WUHU216HW,2013-02-13 08:21:00,
2013-02-13 03:26:00,27.7,21.4,29.80,SSW,203,0.0,0.4,77,0.00,,,0.00,WUHU216HW,2013-02-13 08:26:00,
2013-02-13 03:31:00,27.7,21.4,29.80,SSW,203,0.0,0.2,77,0.00,,,0.00,WUHU216HW,2013-02-13 08:31:00,
2013-02-13 03:36:00,27.7,21.4,29.80,SSW,203,0.0,0.0,77,0.00,,,0.00,WUHU216HW,2013-02-13 08:36:00,
2013-02-13 03:41:00,27.7,21.4,29.81,SSW,203,0.0,0.0,77,0.00,,,0.00,WUHU216HW,2013-02-13 08:41:00,
2013-02-13 03:46:00,27.9,21.6,29.81,SSW,203,0.0,0.0,77,0.00,,,0.00,WUHU216HW,2013-02-13 08:46:00,
2013-02-13 03:51:00,28.1,21.8,29.80,East,90,0.0,0.7,77,0.00,,,0.00,WUHU216HW,2013-02-13 08:51:00,
2013-02-13 03:56:00,28.4,22.2,29.80,East,90,0.4,0.7,77,0.00,,,0.00,WUHU216HW,2013-02-13 08:56:00,
2013-02-13 04:01:00,28.4,22.4,29.80,East,90,0.4,0.4,78,0.00,,,0.00,WUHU216HW,2013-02-13 09:01:00,
2013-02-13 04:06:00,28.4,22.8,29.80,SE,135,1.1,1.1,79,0.00,,,0.00,WUHU216HW,2013-02-13 09:06:00,
2013-02-13 04:11:00,28.6,23.0,29.80,SSW,203,0.4,1.3,79,0.00,,,0.00,WUHU216HW,2013-02-13 09:11:00,
2013-02-13 04:16:00,28.8,23.1,29.79,SSW,203,0.0,1.3,79,0.00,,,0.00,WUHU216HW,2013-02-13 09:16:00,
2013-02-13 04:22:00,29.0,23.3,29.80,SSW,203,0.0,1.3,79,0.00,,,0.00,WUHU216HW,2013-02-13 09:22:00,
2013-02-13 04:27:00,29.2,23.5,29.79,SSW,203,0.0,0.9,79,0.00,,,0.00,WUHU216HW,2013-02-13 09:27:00,
2013-02-13 04:32:00,29.2,23.1,29.79,South,180,0.0,0.4,78,0.00,,,0.00,WUHU216HW,2013-02-13 09:32:00,
2013-02-13 04:37:00,28.6,22.6,29.79,South,180,0.0,0.4,78,0.00,,,0.00,WUHU216HW,2013-02-13 09:37:00,
2013-02-13 04:42:00,28.1,22.1,29.78,South,180,0.7,0.9,78,0.00,,,0.00,WUHU216HW,2013-02-13 09:42:00,
2013-02-13 04:47:00,27.9,21.9,29.78,South,180,0.7,0.9,78,0.00,,,0.00,WUHU216HW,2013-02-13 09:47:00,
2013-02-13 04:52:00,27.7,22.1,29.78,South,180,0.4,0.9,79,0.00,,,0.00,WUHU216HW,2013-02-13 09:52:00,
2013-02-13 04:57:00,27.5,21.9,29.78,South,180,0.0,0.7,79,0.00,,,0.00,WUHU216HW,2013-02-13 09:57:00,
2013-02-13 05:02:00,27.4,21.7,29.78,South,180,0.0,0.9,79,0.00,,,0.00,WUHU216HW,2013-02-13 10:02:00,
2013-02-13 05:07:00,27.2,21.5,29.78,South,180,0.0,0.9,79,0.00,,,0.00,WUHU216HW,2013-02-13 10:07:00,
2013-02-13 05:12:00,27.0,21.3,29.78,South,180,0.4,0.9,79,0.00,,,0.00,WUHU216HW,2013-02-13 10:12:00,
2013-02-13 05:17:00,27.0,21.3,29.77,SSW,203,0.4,1.1,79,0.00,,,0.00,WUHU216HW,2013-02-13 10:17:00,
2013-02-13 05:22:00,27.0,21.3,29.76,SSW,203,0.0,1.1,79,0.00,,,0.00,WUHU216HW,2013-02-13 10:22:00,
2013-02-13 05:27:00,26.8,21.2,29.76,SSW,203,0.2,0.4,79,0.00,,,0.00,WUHU216HW,2013-02-13 10:27:00,
2013-02-13 05:32:00,26.6,21.0,29.77,SSW,203,0.0,0.4,79,0.00,,,0.00,WUHU216HW,2013-02-13 10:32:00,
2013-02-13 05:37:00,26.6,21.0,29.77,SSW,203,0.0,0.4,79,0.00,,,0.00,WUHU216HW,2013-02-13 10:37:00,
2013-02-13 05:43:00,26.6,21.0,29.77,SSW,203,0.4,0.7,79,0.00,,,0.00,WUHU216HW,2013-02-13 10:43:00,
2013-02-13 05:48:00,26.8,21.2,29.77,SSW,203,0.7,0.9,79,0.00,,,0.00,WUHU216HW,2013-02-13 10:48:00,
2013-02-13 05:53:00,27.0,21.3,29.77,SSW,203,0.0,1.1,79,0.00,,,0.00,WUHU216HW,2013-02-13 10:53:00,
2013-02-13 05:58:00,27.0,21.3,29.77,SSW,203,0.0,1.1,79,0.00,,,0.00,WUHU216HW,2013-02-13 10:58:00,
2013-02-13 06:04:00,26.6,20.6,29.77,SSW,203,0.0,0.0,78,0.00,,,0.00,WUHU216HW,2013-02-13 11:04:00,
2013-02-13 06:09:00,26.5,20.4,29.77,SSW,203,0.0,0.2,78,0.00,,,0.00,WUHU216HW,2013-02-13 11:09:00,
2013-02-13 06:14:00,26.3,20.4,29.77,SSW,203,0.0,0.2,78,0.00,,,0.00,WUHU216HW,2013-02-13 11:14:00,
2013-02-13 06:19:00,26.1,20.2,29.77,SSW,203,0.0,0.2,78,0.00,,,0.00,WUHU216HW,2013-02-13 11:19:00,
2013-02-13 06:24:00,25.7,19.8,29.77,SSW,203,0.0,0.2,78,0.00,,,0.00,WUHU216HW,2013-02-13 11:24:00,
2013-02-13 06:29:00,25.6,19.6,29.76,SSW,203,0.0,0.2,78,0.00,,,0.00,WUHU216HW,2013-02-13 11:29:00,
2013-02-13 06:34:00,25.6,20.0,29.76,SSW,203,0.2,0.4,79,0.00,,,0.00,WUHU216HW,2013-02-13 11:34:00,
2013-02-13 06:39:00,25.2,19.6,29.76,SSW,203,0.0,0.4,79,0.00,,,0.00,WUHU216HW,2013-02-13 11:39:00,
2013-02-13 06:44:00,24.8,19.3,29.77,SSW,203,0.0,0.4,79,0.00,,,0.00,WUHU216HW,2013-02-13 11:44:00,
2013-02-13 06:49:00,24.1,18.5,29.77,SSW,203,0.0,0.4,79,0.00,,,0.00,WUHU216HW,2013-02-13 11:49:00,
2013-02-13 06:55:00,23.6,17.7,29.78,SSW,203,0.0,0.0,78,0.00,,,0.00,WUHU216HW,2013-02-13 11:55:00,
2013-02-13 07:00:00,23.4,17.9,29.78,SSW,203,0.0,0.0,79,0.00,,,0.00,WUHU216HW,2013-02-13 12:00:00,
2013-02-13 07:06:00,23.4,17.9,29.78,SSW,203,0.0,0.0,79,0.00,,,0.00,WUHU216HW,2013-02-13 12:06:00,
2013-02-13 07:11:00,23.4,18.2,29.78,SSW,203,0.0,0.0,80,0.00,,,0.00,WUHU216HW,2013-02-13 12:11:00,
2013-02-13 07:16:00,23.4,18.2,29.78,SSW,203,0.0,0.0,80,0.00,,,0.00,WUHU216HW,2013-02-13 12:16:00,
2013-02-13 07:21:00,23.4,18.2,29.78,SSW,203,0.0,0.0,80,0.00,,,0.00,WUHU216HW,2013-02-13 12:21:00,
2013-02-13 07:26:00,23.4,18.5,29.78,SSW,203,0.0,0.0,81,0.00,,,0.00,WUHU216HW,2013-02-13 12:26:00,
2013-02-13 07:31:00,23.6,18.6,29.79,SSW,203,0.0,0.0,81,0.00,,,0.00,WUHU216HW,2013-02-13 12:31:00,
2013-02-13 07:36:00,23.9,19.3,29.79,SSW,203,0.0,0.0,82,0.00,,,0.00,WUHU216HW,2013-02-13 12:36:00,
2013-02-13 07:41:00,24.3,19.6,29.79,SSW,203,0.0,0.0,82,0.00,,,0.00,WUHU216HW,2013-02-13 12:41:00,
2013-02-13 07:46:00,24.8,20.2,29.78,SSW,203,0.0,0.0,82,0.00,,,0.00,WUHU216HW,2013-02-13 12:46:00,
2013-02-13 07:51:00,25.6,20.8,29.79,SSW,203,0.0,0.0,82,0.00,,,0.00,WUHU216HW,2013-02-13 12:51:00,
2013-02-13 07:56:00,26.3,21.8,29.78,SSW,203,0.0,0.0,83,0.00,,,0.00,WUHU216HW,2013-02-13 12:56:00,
2013-02-13 08:02:00,27.0,22.5,29.78,SSW,203,0.0,0.0,83,0.00,,,0.00,WUHU216HW,2013-02-13 13:02:00,
2013-02-13 08:07:00,27.5,23.1,29.78,SSW,203,0.0,0.0,83,0.00,,,0.00,WUHU216HW,2013-02-13 13:07:00,
2013-02-13 08:12:00,28.3,23.4,29.79,SSW,203,0.0,0.0,82,0.00,,,0.00,WUHU216HW,2013-02-13 13:12:00,
2013-02-13 08:17:00,29.0,24.1,29.79,SSW,203,0.0,0.4,82,0.00,,,0.00,WUHU216HW,2013-02-13 13:17:00,
2013-02-13 08:22:00,30.1,25.2,29.78,SSW,203,0.4,0.4,82,0.00,,,0.00,WUHU216HW,2013-02-13 13:22:00,
2013-02-13 08:27:00,31.1,26.0,29.78,SSW,203,0.2,0.4,81,0.00,,,0.00,WUHU216HW,2013-02-13 13:27:00,
2013-02-13 08:32:00,32.0,26.9,29.78,SSW,203,0.0,0.4,81,0.00,,,0.00,WUHU216HW,2013-02-13 13:32:00,
2013-02-13 08:37:00,32.8,27.3,29.78,SSW,203,0.0,0.4,80,0.00,,,0.00,WUHU216HW,2013-02-13 13:37:00,
2013-02-13 08:42:00,33.7,27.8,29.78,SE,135,0.4,0.7,79,0.00,,,0.00,WUHU216HW,2013-02-13 13:42:00,
2013-02-13 08:47:00,34.7,28.5,29.77,NNE,23,1.6,1.6,78,0.00,,,0.00,WUHU216HW,2013-02-13 13:47:00,
2013-02-13 08:52:00,35.6,29.1,29.77,NNE,23,1.8,1.8,77,0.00,,,0.00,WUHU216HW,2013-02-13 13:52:00,
2013-02-13 08:57:00,36.5,29.7,29.77,NE,45,1.6,2.0,76,0.00,,,0.00,WUHU216HW,2013-02-13 13:57:00,
2013-02-13 09:02:00,37.1,29.3,29.77,East,90,0.0,2.0,73,0.00,,,0.00,WUHU216HW,2013-02-13 14:02:00,
2013-02-13 09:07:00,37.6,29.1,29.77,ESE,113,0.9,1.8,71,0.00,,,0.00,WUHU216HW,2013-02-13 14:07:00,
2013-02-13 09:12:00,38.2,29.6,29.76,NE,45,1.8,2.7,71,0.00,,,0.00,WUHU216HW,2013-02-13 14:12:00,
2013-02-13 09:17:00,38.7,29.8,29.76,ENE,68,1.8,2.7,70,0.00,,,0.00,WUHU216HW,2013-02-13 14:17:00,
2013-02-13 09:22:00,39.6,30.6,29.76,East,90,1.1,2.0,70,0.00,,,0.00,WUHU216HW,2013-02-13 14:22:00,
2013-02-13 09:27:00,40.0,30.3,29.76,East,90,0.4,2.0,68,0.00,,,0.00,WUHU216HW,2013-02-13 14:27:00,
2013-02-13 09:32:00,40.1,30.0,29.76,NE,45,1.1,1.3,67,0.00,,,0.00,WUHU216HW,2013-02-13 14:32:00,
2013-02-13 09:37:00,40.1,29.6,29.76,SE,135,0.4,1.1,66,0.00,,,0.00,WUHU216HW,2013-02-13 14:37:00,
2013-02-13 09:42:00,40.0,29.1,29.76,ESE,113,0.0,1.8,65,0.00,,,0.00,WUHU216HW,2013-02-13 14:42:00,
2013-02-13 09:47:00,40.7,30.2,29.76,NE,45,0.9,1.8,66,0.00,,,0.00,WUHU216HW,2013-02-13 14:47:00,
2013-02-13 09:52:00,41.8,30.9,29.76,ESE,113,1.8,2.5,65,0.00,,,0.00,WUHU216HW,2013-02-13 14:52:00,
2013-02-13 09:57:00,42.1,30.4,29.76,NNE,23,1.1,2.5,63,0.00,,,0.00,WUHU216HW,2013-02-13 14:57:00,
2013-02-13 10:02:00,41.8,27.2,29.76,SSW,203,2.2,2.2,56,0.00,,,0.00,WUHU216HW,2013-02-13 15:02:00,
2013-02-13 10:07:00,40.7,26.1,29.75,SW,225,1.3,2.7,56,0.00,,,0.00,WUHU216HW,2013-02-13 15:07:00,
2013-02-13 10:12:00,40.7,27.0,29.75,SSE,158,1.1,2.7,58,0.00,,,0.00,WUHU216HW,2013-02-13 15:12:00,
2013-02-13 10:17:00,41.4,28.2,29.75,South,180,1.1,1.6,59,0.00,,,0.00,WUHU216HW,2013-02-13 15:17:00,
2013-02-13 10:22:00,40.9,26.3,29.76,SSW,203,1.3,3.6,56,0.00,,,0.00,WUHU216HW,2013-02-13 15:22:00,
2013-02-13 10:27:00,41.0,26.9,29.75,SSW,203,1.8,3.6,57,0.00,,,0.00,WUHU216HW,2013-02-13 15:27:00,
2013-02-13 10:32:00,41.9,28.2,29.75,NE,45,2.2,2.2,58,0.00,,,0.00,WUHU216HW,2013-02-13 15:32:00,
2013-02-13 10:37:00,42.8,29.0,29.75,WSW,248,0.4,2.2,58,0.00,,,0.00,WUHU216HW,2013-02-13 15:37:00,
2013-02-13 10:42:00,42.5,27.4,29.75,SW,225,0.9,2.5,55,0.00,,,0.00,WUHU216HW,2013-02-13 15:42:00,
2013-02-13 10:49:00,43.2,28.1,29.75,SSW,203,1.1,2.5,55,0.00,,,0.00,WUHU216HW,2013-02-13 15:49:00,
2013-02-13 10:54:00,42.8,26.5,29.75,SE,135,1.1,1.6,52,0.00,,,0.00,WUHU216HW,2013-02-13 15:54:00,
2013-02-13 10:59:00,42.3,25.9,29.75,SW,225,1.3,3.4,52,0.00,,,0.00,WUHU216HW,2013-02-13 15:59:00,
2013-02-13 11:04:00,42.8,27.7,29.76,NNW,338,1.3,3.4,55,0.00,,,0.00,WUHU216HW,2013-02-13 16:04:00,
2013-02-13 11:10:00,45.0,30.7,29.76,NE,45,1.8,1.8,57,0.00,,,0.00,WUHU216HW,2013-02-13 16:10:00,
2013-02-13 11:15:00,45.7,30.0,29.76,East,90,1.1,1.8,54,0.00,,,0.00,WUHU216HW,2013-02-13 16:15:00,
2013-02-13 11:20:00,45.7,29.5,29.76,SE,135,0.9,1.8,53,0.00,,,0.00,WUHU216HW,2013-02-13 16:20:00,
2013-02-13 11:25:00,45.5,30.2,29.76,North,0,1.1,1.8,55,0.00,,,0.00,WUHU216HW,2013-02-13 16:25:00,
2013-02-13 11:30:00,46.4,30.6,29.76,NE,45,2.0,3.1,54,0.00,,,0.00,WUHU216HW,2013-02-13 16:30:00,
2013-02-13 11:35:00,46.6,30.8,29.76,NE,45,1.8,3.1,54,0.00,,,0.00,WUHU216HW,2013-02-13 16:35:00,
2013-02-13 11:40:00,46.6,30.8,29.76,NE,45,2.9,3.6,54,0.00,,,0.00,WUHU216HW,2013-02-13 16:40:00,
2013-02-13 11:45:00,46.4,29.7,29.75,NE,45,1.8,3.6,52,0.00,,,0.00,WUHU216HW,2013-02-13 16:45:00,
2013-02-13 11:50:00,47.0,30.3,29.76,NW,315,1.8,1.8,52,0.00,,,0.00,WUHU216HW,2013-02-13 16:50:00,
2013-02-13 11:55:00,47.3,30.1,29.75,NNW,338,2.7,2.7,51,0.00,,,0.00,WUHU216HW,2013-02-13 16:55:00,
2013-02-13 12:00:00,47.2,29.9,29.75,East,90,1.1,3.1,51,0.00,,,0.00,WUHU216HW,2013-02-13 17:00:00,
2013-02-13 12:05:00,47.0,29.7,29.75,NW,315,1.6,3.1,51,0.00,,,0.00,WUHU216HW,2013-02-13 17:05:00,
2013-02-13 12:10:00,47.7,30.4,29.75,North,0,2.7,2.7,51,0.00,,,0.00,WUHU216HW,2013-02-13 17:10:00,
2013-02-13 12:15:00,47.5,29.8,29.75,WSW,248,2.0,4.7,50,0.00,,,0.00,WUHU216HW,2013-02-13 17:15:00,
2013-02-13 12:20:00,47.2,29.4,29.73,NNW,338,1.1,4.7,50,0.00,,,0.00,WUHU216HW,2013-02-13 17:20:00,
2013-02-13 12:25:00,47.2,29.9,29.73,NNW,338,3.4,4.0,51,0.00,,,0.00,WUHU216HW,2013-02-13 17:25:00,
2013-02-13 12:30:00,47.2,29.9,29.73,NNE,23,2.7,4.0,51,0.00,,,0.00,WUHU216HW,2013-02-13 17:30:00,
2013-02-13 12:35:00,47.2,29.9,29.73,NNE,23,0.9,3.1,51,0.00,,,0.00,WUHU216HW,2013-02-13 17:35:00,
2013-02-13 12:42:00,47.3,28.5,29.72,WSW,248,2.7,2.7,48,0.00,,,0.00,WUHU216HW,2013-02-13 17:42:00,
2013-02-13 12:47:00,46.8,28.6,29.72,West,270,2.7,4.0,49,0.00,,,0.00,WUHU216HW,2013-02-13 17:47:00,
2013-02-13 12:52:00,46.6,28.5,29.72,North,0,1.6,4.0,49,0.00,,,0.00,WUHU216HW,2013-02-13 17:52:00,
2013-02-13 12:57:00,46.8,28.6,29.71,ENE,68,4.0,4.0,49,0.00,,,0.00,WUHU216HW,2013-02-13 17:57:00,
2013-02-13 13:02:00,47.2,29.4,29.71,ENE,68,0.4,4.0,50,0.00,,,0.00,WUHU216HW,2013-02-13 18:02:00,
2013-02-13 13:07:00,47.5,29.3,29.71,WNW,293,3.1,3.1,49,0.00,,,0.00,WUHU216HW,2013-02-13 18:07:00,
2013-02-13 13:12:00,47.5,28.7,29.70,SE,135,1.1,3.1,48,0.00,,,0.00,WUHU216HW,2013-02-13 18:12:00,
2013-02-13 13:17:00,46.6,27.4,29.70,WNW,293,0.7,3.1,47,0.00,,,0.00,WUHU216HW,2013-02-13 18:17:00,
2013-02-13 13:22:00,47.2,28.9,29.69,NE,45,0.4,3.4,49,0.00,,,0.00,WUHU216HW,2013-02-13 18:22:00,
2013-02-13 13:27:00,47.2,28.9,29.69,NNE,23,1.1,3.4,49,0.00,,,0.00,WUHU216HW,2013-02-13 18:27:00,
2013-02-13 13:32:00,47.9,29.5,29.68,NE,45,1.8,2.0,49,0.00,,,0.00,WUHU216HW,2013-02-13 18:32:00,
2013-02-13 13:37:00,48.6,30.3,29.68,East,90,2.2,3.4,49,0.00,,,0.00,WUHU216HW,2013-02-13 18:37:00,
2013-02-13 13:42:00,48.1,29.2,29.67,East,90,1.1,3.4,48,0.00,,,0.00,WUHU216HW,2013-02-13 18:42:00,
2013-02-13 13:47:00,47.7,27.8,29.67,SE,135,0.4,2.5,46,0.00,,,0.00,WUHU216HW,2013-02-13 18:47:00,
2013-02-13 13:52:00,47.7,29.4,29.67,WNW,293,0.9,2.5,49,0.00,,,0.00,WUHU216HW,2013-02-13 18:52:00,
2013-02-13 13:57:00,47.9,29.0,29.66,NW,315,0.9,2.0,48,0.00,,,0.00,WUHU216HW,2013-02-13 18:57:00,
2013-02-13 14:02:00,47.9,25.7,29.65,SE,135,2.7,2.7,42,0.00,,,0.00,WUHU216HW,2013-02-13 19:02:00,
2013-02-13 14:07:00,46.4,26.1,29.65,SW,225,3.4,3.4,45,0.00,,,0.00,WUHU216HW,2013-02-13 19:07:00,
2013-02-13 14:13:00,45.5,25.8,29.65,NNW,338,1.1,3.4,46,0.00,,,0.00,WUHU216HW,2013-02-13 19:13:00,
2013-02-13 14:18:00,45.5,25.8,29.65,SSE,158,1.1,2.0,46,0.00,,,0.00,WUHU216HW,2013-02-13 19:18:00,
2013-02-13 14:23:00,45.5,26.4,29.66,North,0,0.4,2.0,47,0.00,,,0.00,WUHU216HW,2013-02-13 19:23:00,
2013-02-13 14:28:00,45.5,26.4,29.66,ESE,113,0.4,1.1,47,0.00,,,0.00,WUHU216HW,2013-02-13 19:28:00,
2013-02-13 14:34:00,45.7,27.1,29.66,NE,45,2.7,2.7,48,0.00,,,0.00,WUHU216HW,2013-02-13 19:34:00,
2013-02-13 14:39:00,45.7,27.6,29.66,East,90,0.0,2.7,49,0.00,,,0.00,WUHU216HW,2013-02-13 19:39:00,
2013-02-13 14:44:00,45.5,27.5,29.66,ENE,68,1.8,2.2,49,0.00,,,0.00,WUHU216HW,2013-02-13 19:44:00,
2013-02-13 14:49:00,45.2,27.1,29.66,NE,45,0.2,1.8,49,0.00,,,0.00,WUHU216HW,2013-02-13 19:49:00,
2013-02-13 14:54:00,45.0,27.0,29.66,NE,45,1.1,1.1,49,0.00,,,0.00,WUHU216HW,2013-02-13 19:54:00,
2013-02-13 14:59:00,45.0,27.0,29.66,NE,45,1.1,1.1,49,0.00,,,0.00,WUHU216HW,2013-02-13 19:59:00,
2013-02-13 15:04:00,43.7,24.8,29.65,SSW,203,1.8,2.2,47,0.00,,,0.00,WUHU216HW,2013-02-13 20:04:00,
2013-02-13 15:09:00,43.2,24.9,29.65,SSE,158,0.2,2.2,48,0.00,,,0.00,WUHU216HW,2013-02-13 20:09:00,
2013-02-13 15:14:00,42.8,25.0,29.64,SW,225,1.8,2.0,49,0.00,,,0.00,WUHU216HW,2013-02-13 20:14:00,
2013-02-13 15:19:00,42.7,24.3,29.64,ESE,113,1.1,2.0,48,0.00,,,0.00,WUHU216HW,2013-02-13 20:19:00,
2013-02-13 15:24:00,42.8,25.6,29.65,ENE,68,0.4,1.8,50,0.00,,,0.00,WUHU216HW,2013-02-13 20:24:00,
2013-02-13 15:29:00,42.8,26.0,29.65,ENE,68,0.0,1.8,51,0.00,,,0.00,WUHU216HW,2013-02-13 20:29:00,
2013-02-13 15:34:00,43.0,26.2,29.64,ENE,68,0.9,0.9,51,0.00,,,0.00,WUHU216HW,2013-02-13 20:34:00,
2013-02-13 15:39:00,43.0,26.2,29.64,SE,135,1.1,1.1,51,0.00,,,0.00,WUHU216HW,2013-02-13 20:39:00,
2013-02-13 15:44:00,43.0,26.2,29.64,SE,135,0.4,1.1,51,0.00,,,0.00,WUHU216HW,2013-02-13 20:44:00,
2013-02-13 15:49:00,43.0,25.8,29.64,SE,135,0.4,0.9,50,0.00,,,0.00,WUHU216HW,2013-02-13 20:49:00,
2013-02-13 15:54:00,42.8,26.0,29.64,SE,135,0.4,0.9,51,0.00,,,0.00,WUHU216HW,2013-02-13 20:54:00,
2013-02-13 15:59:00,42.7,26.3,29.64,SE,135,0.4,0.9,52,0.00,,,0.00,WUHU216HW,2013-02-13 20:59:00,
2013-02-13 16:04:00,42.5,26.1,29.64,SE,135,0.7,0.9,52,0.00,,,0.00,WUHU216HW,2013-02-13 21:04:00,
2013-02-13 16:09:00,42.3,25.5,29.64,North,0,0.9,1.8,51,0.00,,,0.00,WUHU216HW,2013-02-13 21:09:00,
2013-02-13 16:14:00,42.1,25.8,29.64,NNE,23,0.7,1.8,52,0.00,,,0.00,WUHU216HW,2013-02-13 21:14:00,
2013-02-13 16:19:00,42.1,25.8,29.64,NE,45,1.8,1.8,52,0.00,,,0.00,WUHU216HW,2013-02-13 21:19:00,
2013-02-13 16:24:00,42.1,25.8,29.63,North,0,0.0,1.8,52,0.00,,,0.00,WUHU216HW,2013-02-13 21:24:00,
2013-02-13 16:29:00,41.8,25.8,29.64,WNW,293,2.5,4.3,53,0.00,,,0.00,WUHU216HW,2013-02-13 21:29:00,
2013-02-13 16:34:00,40.9,24.9,29.64,WSW,248,2.9,4.3,53,0.00,,,0.00,WUHU216HW,2013-02-13 21:34:00,
2013-02-13 16:39:00,40.0,24.6,29.63,WNW,293,1.1,3.4,54,0.00,,,0.00,WUHU216HW,2013-02-13 21:39:00,
2013-02-13 16:44:00,39.4,24.5,29.63,West,270,0.7,3.4,55,0.00,,,0.00,WUHU216HW,2013-02-13 21:44:00,
2013-02-13 16:49:00,38.9,24.4,29.63,North,0,0.4,3.4,56,0.00,,,0.00,WUHU216HW,2013-02-13 21:49:00,
2013-02-13 16:55:00,38.7,24.7,29.63,North,0,0.9,3.4,57,0.00,,,0.00,WUHU216HW,2013-02-13 21:55:00,
2013-02-13 17:00:00,38.3,24.4,29.63,NNE,23,1.8,1.8,57,0.00,,,0.00,WUHU216HW,2013-02-13 22:00:00,
2013-02-13 17:05:00,38.2,24.7,29.63,North,0,0.9,1.8,58,0.00,,,0.00,WUHU216HW,2013-02-13 22:05:00,
2013-02-13 17:10:00,37.8,24.3,29.63,NW,315,0.4,1.8,58,0.00,,,0.00,WUHU216HW,2013-02-13 22:10:00,
2013-02-13 17:15:00,37.6,24.6,29.63,WNW,293,2.5,2.5,59,0.00,,,0.00,WUHU216HW,2013-02-13 22:15:00,
2013-02-13 17:20:00,37.4,24.4,29.62,NNW,338,0.4,2.5,59,0.00,,,0.00,WUHU216HW,2013-02-13 22:20:00,
2013-02-13 17:25:00,37.1,24.1,29.62,WNW,293,0.4,1.8,59,0.00,,,0.00,WUHU216HW,2013-02-13 22:25:00,
2013-02-13 17:30:00,36.9,24.4,29.62,NNE,23,1.8,1.8,60,0.00,,,0.00,WUHU216HW,2013-02-13 22:30:00,
2013-02-13 17:35:00,36.7,24.2,29.61,North,0,0.0,1.8,60,0.00,,,0.00,WUHU216HW,2013-02-13 22:35:00,
2013-02-13 17:40:00,36.5,24.0,29.61,NNW,338,0.0,1.1,60,0.00,,,0.00,WUHU216HW,2013-02-13 22:40:00,
2013-02-13 17:45:00,36.4,23.9,29.61,SW,225,0.0,0.9,60,0.00,,,0.00,WUHU216HW,2013-02-13 22:45:00,
2013-02-13 17:50:00,36.4,23.9,29.61,SW,225,0.0,0.7,60,0.00,,,0.00,WUHU216HW,2013-02-13 22:50:00,
2013-02-13 17:55:00,36.2,23.7,29.61,SW,225,0.0,0.4,60,0.00,,,0.00,WUHU216HW,2013-02-13 22:55:00,
2013-02-13 18:00:00,36.0,23.6,29.61,SW,225,0.0,0.4,60,0.00,,,0.00,WUHU216HW,2013-02-13 23:00:00,
2013-02-13 18:05:00,35.8,23.8,29.60,SW,225,0.7,1.1,61,0.00,,,0.00,WUHU216HW,2013-02-13 23:05:00,
2013-02-13 18:10:00,35.6,23.6,29.60,SW,225,0.2,1.1,61,0.00,,,0.00,WUHU216HW,2013-02-13 23:10:00,
2013-02-13 18:15:00,35.5,23.8,29.60,SW,225,0.0,0.4,62,0.00,,,0.00,WUHU216HW,2013-02-13 23:15:00,
2013-02-13 18:20:00,35.1,23.4,29.61,SW,225,0.0,0.4,62,0.00,,,0.00,WUHU216HW,2013-02-13 23:20:00,
2013-02-13 18:25:00,34.9,23.2,29.61,SW,225,0.0,0.0,62,0.00,,,0.00,WUHU216HW,2013-02-13 23:25:00,
2013-02-13 18:30:00,34.9,23.2,29.61,SW,225,0.4,0.4,62,0.00,,,0.00,WUHU216HW,2013-02-13 23:30:00,
2013-02-13 18:35:00,34.7,23.4,29.60,SW,225,0.4,0.4,63,0.00,,,0.00,WUHU216HW,2013-02-13 23:35:00,
2013-02-13 18:40:00,34.7,23.8,29.60,SW,225,0.0,0.4,64,0.00,,,0.00,WUHU216HW,2013-02-13 23:40:00,
2013-02-13 18:46:00,34.6,23.6,29.61,SW,225,0.2,0.4,64,0.00,,,0.00,WUHU216HW,2013-02-13 23:46:00,
2013-02-13 18:51:00,34.4,23.8,29.60,SW,225,0.4,0.7,65,0.00,,,0.00,WUHU216HW,2013-02-13 23:51:00,
2013-02-13 18:56:00,34.4,23.8,29.60,SSE,158,0.0,0.7,65,0.00,,,0.00,WUHU216HW,2013-02-13 23:56:00,
2013-02-13 19:01:00,34.2,23.9,29.60,South,180,0.4,0.7,66,0.00,,,0.00,WUHU216HW,2013-02-14 00:01:00,
2013-02-13 19:06:00,34.2,23.9,29.60,South,180,0.0,0.7,66,0.00,,,0.00,WUHU216HW,2013-02-14 00:06:00,
2013-02-13 19:11:00,34.2,24.3,29.61,South,180,0.0,0.4,67,0.00,,,0.00,WUHU216HW,2013-02-14 00:11:00,
2013-02-13 19:16:00,34.2,24.3,29.60,South,180,0.0,0.4,67,0.00,,,0.00,WUHU216HW,2013-02-14 00:16:00,
2013-02-13 19:21:00,34.2,24.3,29.60,South,180,0.4,0.7,67,0.00,,,0.00,WUHU216HW,2013-02-14 00:21:00,
2013-02-13 19:26:00,34.2,24.7,29.60,South,180,0.4,0.7,68,0.00,,,0.00,WUHU216HW,2013-02-14 00:26:00,
2013-02-13 19:31:00,34.0,24.5,29.61,South,180,0.4,0.7,68,0.00,,,0.00,WUHU216HW,2013-02-14 00:31:00,
2013-02-13 19:36:00,34.2,24.7,29.61,South,180,0.0,0.7,68,0.00,,,0.00,WUHU216HW,2013-02-14 00:36:00,
2013-02-13 19:41:00,34.0,24.5,29.61,South,180,0.0,0.2,68,0.00,,,0.00,WUHU216HW,2013-02-14 00:41:00,
2013-02-13 19:46:00,34.0,24.5,29.61,South,180,0.0,0.0,68,0.00,,,0.00,WUHU216HW,2013-02-14 00:46:00,
2013-02-13 19:51:00,33.8,24.3,29.61,South,180,0.0,0.0,68,0.00,,,0.00,WUHU216HW,2013-02-14 00:51:00,
2013-02-13 19:56:00,33.7,24.1,29.62,South,180,0.0,0.2,68,0.00,,,0.00,WUHU216HW,2013-02-14 00:56:00,
2013-02-13 20:01:00,33.5,23.9,29.61,South,180,0.4,0.4,68,0.00,,,0.00,WUHU216HW,2013-02-14 01:01:00,
2013-02-13 20:06:00,33.5,23.9,29.61,South,180,0.4,0.4,68,0.00,,,0.00,WUHU216HW,2013-02-14 01:06:00,
2013-02-13 20:11:00,33.5,24.3,29.60,South,180,0.7,0.7,69,0.00,,,0.00,WUHU216HW,2013-02-14 01:11:00,
2013-02-13 20:17:00,33.5,24.3,29.60,South,180,0.0,1.1,69,0.00,,,0.00,WUHU216HW,2013-02-14 01:17:00,
2013-02-13 20:22:00,33.5,24.7,29.60,South,180,0.4,1.1,70,0.00,,,0.00,WUHU216HW,2013-02-14 01:22:00,
2013-02-13 20:27:00,33.5,24.7,29.59,South,180,0.0,0.9,70,0.00,,,0.00,WUHU216HW,2013-02-14 01:27:00,
2013-02-13 20:32:00,33.5,24.3,29.60,South,180,0.0,0.9,69,0.00,,,0.00,WUHU216HW,2013-02-14 01:32:00,
2013-02-13 20:37:00,33.5,24.3,29.60,South,180,0.4,0.4,69,0.00,,,0.00,WUHU216HW,2013-02-14 01:37:00,
2013-02-13 20:42:00,33.5,24.7,29.60,South,180,0.0,0.9,70,0.00,,,0.00,WUHU216HW,2013-02-14 01:42:00,
2013-02-13 20:47:00,33.5,24.7,29.60,South,180,0.4,0.9,70,0.00,,,0.00,WUHU216HW,2013-02-14 01:47:00,
2013-02-13 20:52:00,33.5,25.0,29.60,South,180,0.0,0.7,71,0.00,,,0.00,WUHU216HW,2013-02-14 01:52:00,
2013-02-13 20:57:00,33.3,24.8,29.60,South,180,0.0,0.7,71,0.00,,,0.00,WUHU216HW,2013-02-14 01:57:00,
2013-02-13 21:02:00,33.3,24.6,29.60,South,180,0.0,0.0,70,0.00,,,0.00,WUHU216HW,2013-02-14 02:02:00,
2013-02-13 21:07:00,33.3,24.6,29.61,South,180,0.0,0.0,70,0.00,,,0.00,WUHU216HW,2013-02-14 02:07:00,
2013-02-13 21:12:00,33.3,24.6,29.61,South,180,0.0,0.0,70,0.00,,,0.00,WUHU216HW,2013-02-14 02:12:00,
2013-02-13 21:17:00,33.1,24.4,29.61,South,180,0.0,0.0,70,0.00,,,0.00,WUHU216HW,2013-02-14 02:17:00,
2013-02-13 21:22:00,33.3,24.8,29.61,South,180,0.0,0.0,71,0.00,,,0.00,WUHU216HW,2013-02-14 02:22:00,
2013-02-13 21:27:00,33.3,24.8,29.61,South,180,0.0,0.0,71,0.00,,,0.00,WUHU216HW,2013-02-14 02:27:00,
2013-02-13 21:32:00,33.3,24.8,29.61,South,180,0.0,0.0,71,0.00,,,0.00,WUHU216HW,2013-02-14 02:32:00,
2013-02-13 21:37:00,33.3,25.2,29.61,West,270,1.1,1.1,72,0.00,,,0.00,WUHU216HW,2013-02-14 02:37:00,
2013-02-13 21:42:00,33.3,25.5,29.61,SE,135,0.0,2.0,73,0.00,,,0.00,WUHU216HW,2013-02-14 02:42:00,
2013-02-13 21:48:00,33.8,26.0,29.61,WSW,248,1.1,2.0,73,0.00,,,0.00,WUHU216HW,2013-02-14 02:48:00,
2013-02-13 21:53:00,33.8,26.0,29.61,SSE,158,0.0,1.1,73,0.00,,,0.00,WUHU216HW,2013-02-14 02:53:00,
2013-02-13 21:58:00,33.8,27.6,29.60,SE,135,1.3,2.2,78,0.00,,,0.00,WUHU216HW,2013-02-14 02:58:00,
2013-02-13 22:03:00,33.5,27.3,29.61,ESE,113,1.1,2.2,78,0.00,,,0.00,WUHU216HW,2013-02-14 03:03:00,
2013-02-13 22:10:00,33.1,27.0,29.61,SSE,158,0.0,1.1,78,0.00,,,0.00,WUHU216HW,2013-02-14 03:10:00,
2013-02-13 22:15:00,33.1,27.3,29.61,SSW,203,0.7,1.1,79,0.00,,,0.00,WUHU216HW,2013-02-14 03:15:00,
2013-02-13 22:20:00,33.1,27.6,29.61,SW,225,1.6,1.6,80,0.00,,,0.00,WUHU216HW,2013-02-14 03:20:00,
2013-02-13 22:25:00,32.9,27.7,29.61,SSW,203,0.4,1.6,81,0.00,,,0.00,WUHU216HW,2013-02-14 03:25:00,
2013-02-13 22:30:00,32.9,27.7,29.61,SSE,158,0.2,1.6,81,0.00,,,0.00,WUHU216HW,2013-02-14 03:30:00,
2013-02-13 22:35:00,32.9,27.7,29.60,South,180,0.4,1.1,81,0.00,,,0.00,WUHU216HW,2013-02-14 03:35:00,
2013-02-13 22:40:00,32.9,28.4,29.60,South,180,0.7,1.1,83,0.00,,,0.00,WUHU216HW,2013-02-14 03:40:00,
2013-02-13 22:45:00,32.8,27.9,29.60,South,180,0.2,0.7,82,0.00,,,0.00,WUHU216HW,2013-02-14 03:45:00,
2013-02-13 22:50:00,32.8,27.9,29.60,South,180,0.0,0.4,82,0.00,,,0.00,WUHU216HW,2013-02-14 03:50:00,
2013-02-13 22:55:00,32.8,27.9,29.60,South,180,0.4,0.4,82,0.00,,,0.00,WUHU216HW,2013-02-14 03:55:00,
2013-02-13 23:00:00,32.8,27.9,29.60,South,180,0.2,0.4,82,0.00,,,0.00,WUHU216HW,2013-02-14 04:00:00,
2013-02-13 23:05:00,32.8,28.2,29.60,South,180,0.2,1.1,83,0.00,,,0.00,WUHU216HW,2013-02-14 04:05:00,
2013-02-13 23:10:00,32.8,28.2,29.60,South,180,0.0,1.1,83,0.00,,,0.00,WUHU216HW,2013-02-14 04:10:00,
2013-02-13 23:15:00,32.8,28.4,29.60,South,180,0.4,1.1,84,0.00,,,0.00,WUHU216HW,2013-02-14 04:15:00,
2013-02-13 23:20:00,32.8,28.7,29.61,South,180,0.0,1.1,85,0.00,,,0.00,WUHU216HW,2013-02-14 04:20:00,
2013-02-13 23:25:00,32.8,28.2,29.60,South,180,0.0,0.7,83,0.00,,,0.00,WUHU216HW,2013-02-14 04:25:00,
2013-02-13 23:30:00,32.8,29.0,29.60,South,180,0.0,0.7,86,0.00,,,0.00,WUHU216HW,2013-02-14 04:30:00,
2013-02-13 23:35:00,32.8,29.0,29.61,South,180,0.0,0.2,86,0.00,,,0.00,WUHU216HW,2013-02-14 04:35:00,
2013-02-13 23:40:00,32.8,29.0,29.60,South,180,0.0,0.2,86,0.00,,,0.00,WUHU216HW,2013-02-14 04:40:00,
2013-02-13 23:45:00,32.8,29.0,29.60,South,180,0.0,0.0,86,0.00,,,0.00,WUHU216HW,2013-02-14 04:45:00,
2013-02-13 23:50:00,32.6,28.9,29.60,South,180,0.0,0.0,86,0.00,,,0.00,WUHU216HW,2013-02-14 04:50:00,
2013-02-13 23:55:00,32.6,28.5,29.60,South,180,0.0,0.0,85,0.00,,,0.00,WUHU216HW,2013-02-14 04:55:00,